User: anonymous   Login
Location: Steinbach
(49.5170°N, 96.6830°W)
Time: 17:32:27
(UTC-05:00)
Language:

NOSS 3-4 (A) - Orbit

View from above orbital plane
View from above orbital plane
View from above satellite
View from above satellite

Ground track
Ground track

The orbit data is extracted from the following two-line orbital elements,

1 31701U 07027A   17230.96952546 0.00000000  00000-0  00000-0 0    00
2 31701  63.4029 283.3366 0192000  25.3873 334.6127 13.40729808    07
Epoch (UTC): 18 August 2017 23:16:07
Eccentricity: 0.0192000
inclination: 63.4029°
perigee height: 963 km
apogee height: 1250 km
right ascension of ascending node: 283.3366°
argument of perigee: 25.3873°
revolutions per day: 13.40729808
mean anomaly at epoch: 334.6127°
orbit number at epoch: 0

The dashed part of the orbit path shows where the satellite is in the earth's shadow,  

DLR